Time,TemperatureF,DewpointF,PressureIn,WindDirection,WindDirectionDegrees,WindSpeedMPH,WindSpeedGustMPH,Humidity,HourlyPrecipIn,Conditions,Clouds,dailyrainin,SolarRadiationWatts/m^2,SoftwareType,DateUTC
2013-02-13 00:01:00,45.0,17.0,-100.00,NNW,327,0.0,1.0,31,-99.99,,,-99.99,0.000000,,2013-02-13 08:01:00,
2013-02-13 00:11:00,45.0,17.0,-100.00,South,182,1.0,2.0,32,-99.99,,,-99.99,0.000000,,2013-02-13 08:11:00,
2013-02-13 00:21:00,45.0,17.0,-100.00,SSW,192,0.0,1.0,33,-99.99,,,-99.99,0.000000,,2013-02-13 08:21:00,
2013-02-13 00:31:00,44.0,18.0,-100.00,SSW,192,0.0,1.0,35,-99.99,,,-99.99,0.000000,,2013-02-13 08:31:00,
2013-02-13 00:43:00,44.0,18.0,-100.00,South,191,0.0,1.0,34,-99.99,,,-99.99,0.000000,,2013-02-13 08:43:00,
2013-02-13 00:52:00,45.0,19.0,-100.00,SSW,195,0.0,1.0,36,-99.99,,,-99.99,0.000000,,2013-02-13 08:52:00,
2013-02-13 01:01:00,44.0,19.0,-100.00,SSW,195,0.0,1.0,37,-99.99,,,-99.99,0.000000,,2013-02-13 09:01:00,
2013-02-13 01:11:00,43.0,20.0,-100.00,South,191,0.0,1.0,39,-99.99,,,-99.99,0.000000,,2013-02-13 09:11:00,
2013-02-13 01:21:00,44.0,20.0,-100.00,South,184,0.0,1.0,39,-99.99,,,-99.99,0.000000,,2013-02-13 09:21:00,
2013-02-13 01:31:00,44.0,20.0,-100.00,South,184,0.0,1.0,39,-99.99,,,-99.99,0.000000,,2013-02-13 09:31:00,
2013-02-13 01:41:00,43.0,21.0,-100.00,SSW,196,0.0,0.0,41,-99.99,,,-99.99,0.000000,,2013-02-13 09:41:00,
2013-02-13 01:51:00,43.0,20.0,-100.00,SSW,196,0.0,1.0,40,-99.99,,,-99.99,0.000000,,2013-02-13 09:51:00,
2013-02-13 02:01:00,43.0,20.0,-100.00,SSE,152,0.0,1.0,40,-99.99,,,-99.99,0.000000,,2013-02-13 10:01:00,
2013-02-13 02:11:00,43.0,20.0,-100.00,NE,47,1.0,3.0,39,-99.99,,,-99.99,0.000000,,2013-02-13 10:11:00,
2013-02-13 02:21:00,43.0,18.0,-100.00,NE,50,1.0,3.0,36,-99.99,,,-99.99,0.000000,,2013-02-13 10:21:00,
2013-02-13 02:31:00,42.0,18.0,-100.00,NNE,29,1.0,2.0,37,-99.99,,,-99.99,0.000000,,2013-02-13 10:31:00,
2013-02-13 02:41:00,42.0,19.0,-100.00,North,-999,0.0,0.0,40,-99.99,,,-99.99,0.000000,,2013-02-13 10:41:00,
2013-02-13 02:51:00,41.0,20.0,-100.00,SE,135,0.0,2.0,43,-99.99,,,-99.99,0.000000,,2013-02-13 10:51:00,
2013-02-13 03:01:00,41.0,19.0,-100.00,South,169,1.0,1.0,42,-99.99,,,-99.99,0.000000,,2013-02-13 11:01:00,
2013-02-13 03:11:00,40.0,20.0,-100.00,SSE,168,0.0,1.0,44,-99.99,,,-99.99,0.000000,,2013-02-13 11:11:00,
2013-02-13 03:22:00,40.0,19.0,-100.00,South,169,1.0,2.0,43,-99.99,,,-99.99,0.000000,,2013-02-13 11:22:00,
2013-02-13 03:32:00,40.0,19.0,-100.00,South,174,1.0,2.0,42,-99.99,,,-99.99,0.000000,,2013-02-13 11:32:00,
2013-02-13 03:42:00,41.0,19.0,-100.00,South,174,1.0,2.0,41,-99.99,,,-99.99,0.000000,,2013-02-13 11:42:00,
2013-02-13 03:52:00,41.0,20.0,-100.00,SSE,164,1.0,2.0,42,-99.99,,,-99.99,0.000000,,2013-02-13 11:52:00,
2013-02-13 04:02:00,41.0,19.0,-100.00,South,178,0.0,2.0,42,-99.99,,,-99.99,0.000000,,2013-02-13 12:02:00,
2013-02-13 04:11:00,40.0,20.0,-100.00,North,-999,0.0,0.0,43,-99.99,,,-99.99,0.000000,,2013-02-13 12:11:00,
2013-02-13 04:21:00,40.0,20.0,-100.00,South,179,0.0,1.0,43,-99.99,,,-99.99,0.000000,,2013-02-13 12:21:00,
2013-02-13 04:32:00,40.0,20.0,-100.00,North,-999,0.0,0.0,45,-99.99,,,-99.99,0.000000,,2013-02-13 12:32:00,
2013-02-13 04:42:00,39.0,22.0,-100.00,South,180,0.0,1.0,49,-99.99,,,-99.99,0.000000,,2013-02-13 12:42:00,
2013-02-13 04:52:00,39.0,21.0,-100.00,South,176,2.0,3.0,47,-99.99,,,-99.99,0.000000,,2013-02-13 12:52:00,
2013-02-13 05:02:00,39.0,20.0,-100.00,South,180,0.0,2.0,46,-99.99,,,-99.99,0.000000,,2013-02-13 13:02:00,
2013-02-13 05:11:00,40.0,21.0,-100.00,SSE,157,0.0,1.0,45,-99.99,,,-99.99,0.000000,,2013-02-13 13:11:00,
2013-02-13 05:21:00,39.0,22.0,-100.00,South,172,0.0,1.0,49,-99.99,,,-99.99,0.000000,,2013-02-13 13:21:00,
2013-02-13 05:31:00,39.0,21.0,-100.00,SSW,192,0.0,2.0,48,-99.99,,,-99.99,0.000000,,2013-02-13 13:31:00,
2013-02-13 05:41:00,39.0,21.0,-100.00,SSW,208,0.0,1.0,47,-99.99,,,-99.99,0.000000,,2013-02-13 13:41:00,
2013-02-13 05:51:00,39.0,20.0,-100.00,SSW,203,0.0,1.0,46,-99.99,,,-99.99,0.000000,,2013-02-13 13:51:00,
2013-02-13 06:01:00,39.0,20.0,-100.00,NNW,336,0.0,1.0,46,-99.99,,,-99.99,0.000000,,2013-02-13 14:01:00,
2013-02-13 06:11:00,39.0,21.0,-100.00,NNW,338,0.0,1.0,48,-99.99,,,-99.99,0.000000,,2013-02-13 14:11:00,
2013-02-13 06:21:00,39.0,21.0,-100.00,WNW,297,0.0,2.0,49,-99.99,,,-99.99,0.000000,,2013-02-13 14:21:00,
2013-02-13 06:31:00,39.0,22.0,-100.00,SW,222,0.0,1.0,49,-99.99,,,-99.99,0.000000,,2013-02-13 14:31:00,
2013-02-13 06:41:00,39.0,22.0,-100.00,ENE,67,0.0,2.0,49,-99.99,,,-99.99,0.000000,,2013-02-13 14:41:00,
2013-02-13 06:52:00,39.0,21.0,-100.00,NNE,12,0.0,3.0,49,-99.99,,,-99.99,0.000000,,2013-02-13 14:52:00,
2013-02-13 07:01:00,39.0,21.0,-100.00,North,5,0.0,0.0,49,-99.99,,,-99.99,1.000000,,2013-02-13 15:01:00,
2013-02-13 07:11:00,39.0,21.0,-100.00,NNW,335,0.0,3.0,48,-99.99,,,-99.99,4.000000,,2013-02-13 15:11:00,
2013-02-13 07:21:00,39.0,21.0,-100.00,North,359,0.0,1.0,47,-99.99,,,-99.99,6.000000,,2013-02-13 15:21:00,
2013-02-13 07:32:00,40.0,21.0,-100.00,ENE,61,1.0,3.0,47,-99.99,,,-99.99,11.000000,,2013-02-13 15:32:00,
2013-02-13 07:42:00,40.0,22.0,-100.00,SSW,205,1.0,3.0,48,-99.99,,,-99.99,18.000000,,2013-02-13 15:42:00,
2013-02-13 07:51:00,40.0,22.0,-100.00,SSW,205,1.0,3.0,48,-99.99,,,-99.99,18.000000,,2013-02-13 15:51:00,
2013-02-13 08:01:00,41.0,21.0,-100.00,SW,229,0.0,1.0,45,-99.99,,,-99.99,18.000000,,2013-02-13 16:01:00,
2013-02-13 08:11:00,41.0,21.0,-100.00,SW,228,0.0,1.0,44,-99.99,,,-99.99,20.000000,,2013-02-13 16:11:00,
2013-02-13 08:21:00,42.0,20.0,-100.00,SSE,168,1.0,2.0,42,-99.99,,,-99.99,23.000000,,2013-02-13 16:21:00,
2013-02-13 08:31:00,43.0,20.0,-100.00,South,177,2.0,4.0,41,-99.99,,,-99.99,25.000000,,2013-02-13 16:31:00,
2013-02-13 08:41:00,43.0,20.0,-100.00,South,189,2.0,4.0,39,-99.99,,,-99.99,25.000000,,2013-02-13 16:41:00,
2013-02-13 08:51:00,44.0,20.0,-100.00,South,176,1.0,3.0,38,-99.99,,,-99.99,25.000000,,2013-02-13 16:51:00,
2013-02-13 09:01:00,45.0,21.0,-100.00,NE,55,0.0,3.0,37,-99.99,,,-99.99,28.000000,,2013-02-13 17:01:00,
2013-02-13 09:11:00,46.0,20.0,-100.00,ESE,122,1.0,5.0,36,-99.99,,,-99.99,28.000000,,2013-02-13 17:11:00,
2013-02-13 09:21:00,46.0,20.0,-100.00,ESE,122,1.0,5.0,36,-99.99,,,-99.99,28.000000,,2013-02-13 17:21:00,
2013-02-13 09:31:00,46.0,20.0,-100.00,SSE,159,1.0,3.0,35,-99.99,,,-99.99,30.000000,,2013-02-13 17:31:00,
2013-02-13 09:41:00,47.0,21.0,-100.00,South,182,1.0,5.0,35,-99.99,,,-99.99,327.000000,,2013-02-13 17:41:00,
2013-02-13 09:52:00,49.0,21.0,-100.00,SSW,195,2.0,5.0,32,-99.99,,,-99.99,477.000000,,2013-02-13 17:52:00,
2013-02-13 10:01:00,52.0,21.0,-100.00,ENE,59,1.0,3.0,30,-99.99,,,-99.99,505.000000,,2013-02-13 18:01:00,
2013-02-13 10:11:00,52.0,21.0,-100.00,NE,44,1.0,5.0,29,-99.99,,,-99.99,532.000000,,2013-02-13 18:11:00,
2013-02-13 10:22:00,53.0,21.0,-100.00,SE,128,1.0,4.0,29,-99.99,,,-99.99,559.000000,,2013-02-13 18:22:00,
2013-02-13 10:32:00,54.0,22.0,-100.00,NE,56,1.0,4.0,29,-99.99,,,-99.99,584.000000,,2013-02-13 18:32:00,
2013-02-13 10:41:00,53.0,22.0,-100.00,NE,54,2.0,4.0,29,-99.99,,,-99.99,607.000000,,2013-02-13 18:41:00,
2013-02-13 10:51:00,53.0,22.0,-100.00,NE,54,2.0,4.0,29,-99.99,,,-99.99,607.000000,,2013-02-13 18:51:00,
2013-02-13 11:01:00,55.0,22.0,-100.00,NNE,30,1.0,4.0,27,-99.99,,,-99.99,649.000000,,2013-02-13 19:01:00,
2013-02-13 11:11:00,56.0,21.0,-100.00,NNE,28,1.0,4.0,26,-99.99,,,-99.99,668.000000,,2013-02-13 19:11:00,
2013-02-13 11:21:00,55.0,21.0,-100.00,NE,41,2.0,5.0,26,-99.99,,,-99.99,685.000000,,2013-02-13 19:21:00,
2013-02-13 11:31:00,56.0,21.0,-100.00,NE,50,1.0,3.0,25,-99.99,,,-99.99,699.000000,,2013-02-13 19:31:00,
2013-02-13 11:41:00,57.0,21.0,-100.00,NNE,31,2.0,6.0,25,-99.99,,,-99.99,711.000000,,2013-02-13 19:41:00,
2013-02-13 11:51:00,57.0,21.0,-100.00,NNE,12,1.0,3.0,25,-99.99,,,-99.99,722.000000,,2013-02-13 19:51:00,
2013-02-13 12:02:00,57.0,22.0,-100.00,SSE,162,1.0,4.0,25,-99.99,,,-99.99,732.000000,,2013-02-13 20:02:00,
2013-02-13 12:11:00,57.0,21.0,-100.00,West,280,2.0,5.0,24,-99.99,,,-99.99,741.000000,,2013-02-13 20:11:00,
2013-02-13 12:21:00,58.0,21.0,-100.00,SW,224,2.0,4.0,23,-99.99,,,-99.99,744.000000,,2013-02-13 20:21:00,
2013-02-13 12:31:00,59.0,21.0,-100.00,SSW,203,2.0,4.0,23,-99.99,,,-99.99,748.000000,,2013-02-13 20:31:00,
2013-02-13 12:41:00,59.0,21.0,-100.00,NNE,32,1.0,4.0,23,-99.99,,,-99.99,749.000000,,2013-02-13 20:41:00,
2013-02-13 12:52:00,60.0,22.0,-100.00,NE,40,1.0,3.0,23,-99.99,,,-99.99,749.000000,,2013-02-13 20:52:00,
2013-02-13 13:01:00,60.0,21.0,-100.00,NW,318,2.0,5.0,22,-99.99,,,-99.99,745.000000,,2013-02-13 21:01:00,
2013-02-13 13:11:00,60.0,22.0,-100.00,NNW,342,2.0,5.0,23,-99.99,,,-99.99,742.000000,,2013-02-13 21:11:00,
2013-02-13 13:21:00,60.0,21.0,-100.00,NE,37,2.0,5.0,22,-99.99,,,-99.99,735.000000,,2013-02-13 21:21:00,
2013-02-13 13:31:00,60.0,21.0,-100.00,NE,45,2.0,6.0,22,-99.99,,,-99.99,727.000000,,2013-02-13 21:31:00,
2013-02-13 13:42:00,61.0,21.0,-100.00,NNE,18,1.0,4.0,21,-99.99,,,-99.99,717.000000,,2013-02-13 21:42:00,
2013-02-13 13:52:00,61.0,21.0,-100.00,NNE,12,2.0,6.0,21,-99.99,,,-99.99,705.000000,,2013-02-13 21:52:00,
2013-02-13 14:02:00,61.0,21.0,-100.00,NW,318,2.0,5.0,21,-99.99,,,-99.99,692.000000,,2013-02-13 22:02:00,
2013-02-13 14:11:00,62.0,22.0,-100.00,East,82,2.0,5.0,21,-99.99,,,-99.99,675.000000,,2013-02-13 22:11:00,
2013-02-13 14:21:00,62.0,22.0,-100.00,NNE,14,2.0,8.0,21,-99.99,,,-99.99,656.000000,,2013-02-13 22:21:00,
2013-02-13 14:31:00,63.0,21.0,-100.00,West,262,1.0,4.0,20,-99.99,,,-99.99,637.000000,,2013-02-13 22:31:00,
2013-02-13 14:42:00,64.0,21.0,-100.00,NE,43,1.0,3.0,19,-99.99,,,-99.99,617.000000,,2013-02-13 22:42:00,
2013-02-13 14:51:00,64.0,21.0,-100.00,NW,322,1.0,4.0,19,-99.99,,,-99.99,595.000000,,2013-02-13 22:51:00,
2013-02-13 15:01:00,64.0,22.0,-100.00,North,7,2.0,6.0,20,-99.99,,,-99.99,569.000000,,2013-02-13 23:01:00,
2013-02-13 15:11:00,65.0,22.0,-100.00,NNE,30,1.0,4.0,19,-99.99,,,-99.99,543.000000,,2013-02-13 23:11:00,
2013-02-13 15:21:00,65.0,22.0,-100.00,NNW,347,1.0,5.0,19,-99.99,,,-99.99,517.000000,,2013-02-13 23:21:00,
2013-02-13 15:32:00,65.0,22.0,-100.00,NE,53,1.0,3.0,19,-99.99,,,-99.99,488.000000,,2013-02-13 23:32:00,
2013-02-13 15:41:00,65.0,22.0,-100.00,SSE,151,1.0,4.0,19,-99.99,,,-99.99,458.000000,,2013-02-13 23:41:00,
2013-02-13 15:52:00,65.0,22.0,-100.00,WNW,298,2.0,5.0,19,-99.99,,,-99.99,427.000000,,2013-02-13 23:52:00,
2013-02-13 16:01:00,66.0,21.0,-100.00,NNE,31,1.0,3.0,18,-99.99,,,-99.99,394.000000,,2013-02-14 00:01:00,
2013-02-13 16:11:00,67.0,22.0,-100.00,North,6,1.0,4.0,18,-99.99,,,-99.99,362.000000,,2013-02-14 00:11:00,
2013-02-13 16:21:00,67.0,22.0,-100.00,NNE,26,1.0,3.0,18,-99.99,,,-99.99,328.000000,,2013-02-14 00:21:00,
2013-02-13 16:31:00,67.0,22.0,-100.00,NE,49,1.0,3.0,18,-99.99,,,-99.99,292.000000,,2013-02-14 00:31:00,
2013-02-13 16:42:00,67.0,22.0,-100.00,NNW,338,1.0,4.0,18,-99.99,,,-99.99,258.000000,,2013-02-14 00:42:00,
2013-02-13 16:51:00,67.0,22.0,-100.00,NNW,338,1.0,4.0,18,-99.99,,,-99.99,258.000000,,2013-02-14 00:51:00,
2013-02-13 17:01:00,67.0,22.0,-100.00,NE,43,1.0,3.0,18,-99.99,,,-99.99,189.000000,,2013-02-14 01:01:00,
2013-02-13 17:11:00,66.0,22.0,-100.00,NE,46,1.0,2.0,18,-99.99,,,-99.99,156.000000,,2013-02-14 01:11:00,
2013-02-13 17:21:00,64.0,21.0,-100.00,NNE,28,0.0,3.0,19,-99.99,,,-99.99,118.000000,,2013-02-14 01:21:00,
2013-02-13 17:31:00,64.0,21.0,-100.00,NNE,28,0.0,3.0,19,-99.99,,,-99.99,118.000000,,2013-02-14 01:31:00,
2013-02-13 17:41:00,63.0,22.0,-100.00,WSW,246,0.0,1.0,21,-99.99,,,-99.99,20.000000,,2013-02-14 01:41:00,
2013-02-13 17:50:00,59.0,24.0,-100.00,North,-999,0.0,0.0,25,-99.99,,,-99.99,0.000000,,2013-02-14 01:50:00,
2013-02-13 17:51:00,62.0,22.0,-100.00,West,276,0.0,1.0,21,-99.99,,,-99.99,11.000000,,2013-02-14 01:51:00,
2013-02-13 18:01:00,61.0,23.0,-100.00,West,270,0.0,0.0,23,-99.99,,,-99.99,8.000000,,2013-02-14 02:01:00,
2013-02-13 18:11:00,60.0,23.0,-100.00,North,-999,0.0,0.0,24,-99.99,,,-99.99,4.000000,,2013-02-14 02:11:00,
2013-02-13 18:21:00,60.0,23.0,-100.00,North,-999,0.0,0.0,24,-99.99,,,-99.99,2.000000,,2013-02-14 02:21:00,
2013-02-13 18:31:00,59.0,24.0,-100.00,North,-999,0.0,0.0,25,-99.99,,,-99.99,0.000000,,2013-02-14 02:31:00,
2013-02-13 18:41:00,59.0,24.0,-100.00,North,-999,0.0,0.0,25,-99.99,,,-99.99,0.000000,,2013-02-14 02:41:00,
2013-02-13 19:02:00,59.0,24.0,-100.00,SSW,195,0.0,2.0,26,-99.99,,,-99.99,0.000000,,2013-02-14 03:02:00,
2013-02-13 19:11:00,58.0,25.0,-100.00,South,187,1.0,3.0,27,-99.99,,,-99.99,0.000000,,2013-02-14 03:11:00,
2013-02-13 19:21:00,59.0,24.0,-100.00,SSW,192,1.0,3.0,26,-99.99,,,-99.99,0.000000,,2013-02-14 03:21:00,
2013-02-13 19:31:00,59.0,24.0,-100.00,SSW,201,1.0,2.0,26,-99.99,,,-99.99,0.000000,,2013-02-14 03:31:00,
2013-02-13 19:42:00,59.0,23.0,-100.00,SSW,210,1.0,3.0,25,-99.99,,,-99.99,0.000000,,2013-02-14 03:42:00,
2013-02-13 19:51:00,58.0,23.0,-100.00,South,175,0.0,2.0,25,-99.99,,,-99.99,0.000000,,2013-02-14 03:51:00,
2013-02-13 20:01:00,58.0,23.0,-100.00,South,182,1.0,1.0,26,-99.99,,,-99.99,0.000000,,2013-02-14 04:01:00,
2013-02-13 20:11:00,58.0,23.0,-100.00,SSE,166,0.0,1.0,26,-99.99,,,-99.99,0.000000,,2013-02-14 04:11:00,
2013-02-13 20:21:00,57.0,24.0,-100.00,South,188,1.0,2.0,28,-99.99,,,-99.99,0.000000,,2013-02-14 04:21:00,
2013-02-13 20:31:00,57.0,24.0,-100.00,South,183,1.0,2.0,28,-99.99,,,-99.99,0.000000,,2013-02-14 04:31:00,
2013-02-13 20:41:00,57.0,24.0,-100.00,South,182,0.0,2.0,28,-99.99,,,-99.99,0.000000,,2013-02-14 04:41:00,
2013-02-13 20:51:00,56.0,25.0,-100.00,SW,234,0.0,0.0,30,-99.99,,,-99.99,0.000000,,2013-02-14 04:51:00,
2013-02-13 21:01:00,56.0,25.0,-100.00,SW,234,0.0,0.0,30,-99.99,,,-99.99,0.000000,,2013-02-14 05:01:00,
2013-02-13 21:11:00,55.0,26.0,-100.00,SSE,165,1.0,3.0,32,-99.99,,,-99.99,0.000000,,2013-02-14 05:11:00,
2013-02-13 21:21:00,54.0,25.0,-100.00,ENE,71,0.0,1.0,32,-99.99,,,-99.99,0.000000,,2013-02-14 05:21:00,
2013-02-13 21:31:00,54.0,25.0,-100.00,NE,34,1.0,2.0,32,-99.99,,,-99.99,0.000000,,2013-02-14 05:31:00,
2013-02-13 21:41:00,53.0,26.0,-100.00,NE,48,0.0,1.0,35,-99.99,,,-99.99,0.000000,,2013-02-14 05:41:00,
2013-02-13 21:52:00,52.0,26.0,-100.00,North,-999,0.0,0.0,36,-99.99,,,-99.99,0.000000,,2013-02-14 05:52:00,
2013-02-13 22:01:00,51.0,26.0,-100.00,NE,48,0.0,0.0,38,-99.99,,,-99.99,0.000000,,2013-02-14 06:01:00,
2013-02-13 22:11:00,51.0,26.0,-100.00,North,-999,0.0,0.0,38,-99.99,,,-99.99,0.000000,,2013-02-14 06:11:00,
2013-02-13 22:21:00,51.0,27.0,-100.00,NE,48,0.0,1.0,39,-99.99,,,-99.99,0.000000,,2013-02-14 06:21:00,
2013-02-13 22:31:00,51.0,27.0,-100.00,South,171,1.0,3.0,40,-99.99,,,-99.99,0.000000,,2013-02-14 06:31:00,
2013-02-13 22:41:00,51.0,28.0,-100.00,South,181,2.0,3.0,41,-99.99,,,-99.99,0.000000,,2013-02-14 06:41:00,
2013-02-13 22:51:00,51.0,26.0,-100.00,South,173,1.0,3.0,37,-99.99,,,-99.99,0.000000,,2013-02-14 06:51:00,
2013-02-13 23:01:00,51.0,26.0,-100.00,South,179,2.0,3.0,38,-99.99,,,-99.99,0.000000,,2013-02-14 07:01:00,
2013-02-13 23:11:00,50.0,26.0,-100.00,SSE,162,2.0,4.0,39,-99.99,,,-99.99,0.000000,,2013-02-14 07:11:00,
2013-02-13 23:21:00,50.0,26.0,-100.00,South,169,2.0,3.0,39,-99.99,,,-99.99,0.000000,,2013-02-14 07:21:00,
2013-02-13 23:31:00,50.0,26.0,-100.00,SSE,152,1.0,1.0,40,-99.99,,,-99.99,0.000000,,2013-02-14 07:31:00,
2013-02-13 23:41:00,49.0,27.0,-100.00,SSE,164,0.0,1.0,41,-99.99,,,-99.99,0.000000,,2013-02-14 07:41:00,
2013-02-13 23:51:00,49.0,27.0,-100.00,South,170,0.0,0.0,42,-99.99,,,-99.99,0.000000,,2013-02-14 07:51:00,